• In Spain
  • List of Countries
  • For 7 days
  • Water Temperature
  • Satellite Maps
  • Weather Map
  • Weather Widgets
  • user-avatar
    Login

    Hourly Weather Tehran

    Today, 25 September, Tuesday

    Time Temperature Precipitation Wind Pressure Humidity
    00:00 +24°C° 0 mm 3 mps 667 mmHg 44%
    01:00 +23°C° 0 mm 2 mps 667 mmHg 45%
    02:00 +23°C° 0 mm 2 mps 667 mmHg 46%
    03:00 +23°C° 0 mm 2 mps 667 mmHg 46%
    04:00 +23°C° 0 mm 2 mps 667 mmHg 47%
    05:00 +23°C° 0 mm 2 mps 667 mmHg 48%
    06:00 +21°C° 0 mm 2 mps 667 mmHg 49%
    07:00 +23°C° 0 mm 2 mps 667 mmHg 45%
    08:00 +24°C° 0 mm 2 mps 667 mmHg 42%
    09:00 +26°C° 0 mm 2 mps 667 mmHg 38%
    10:00 +26°C° 0 mm 2 mps 667 mmHg 36%
    11:00 +27°C° 0 mm 2 mps 667 mmHg 34%
    12:00 +28°C° 0 mm 3 mps 667 mmHg 32%
    13:00 +28°C° 0 mm 2 mps 666 mmHg 32%
    14:00 +28°C° 0 mm 2 mps 666 mmHg 31%
    15:00 +29°C° 0 mm 2 mps 666 mmHg 31%
    16:00 +28°C° 0 mm 2 mps 665 mmHg 32%
    17:00 +28°C° 0 mm 2 mps 665 mmHg 33%
    18:00 +27°C° 0 mm 1 mps 665 mmHg 34%
    19:00 +27°C° 0 mm 1 mps 665 mmHg 34%
    20:00 +26°C° 0 mm 1 mps 665 mmHg 35%
    21:00 +26°C° 0 mm 1 mps 665 mmHg 35%
    22:00 +25°C° 0 mm 1 mps 665 mmHg 36%
    23:00 +25°C° 0 mm 1 mps 665 mmHg 36%

    Tomorrow, 26 September, Wednesday

    Time Temperature Precipitation Wind Pressure Humidity
    00:00 +25°C° 0 mm 1 mps 665 mmHg 37%
    01:00 +24°C° 0 mm 1 mps 665 mmHg 38%
    02:00 +24°C° 0 mm 1 mps 664 mmHg 39%
    03:00 +23°C° 0 mm 1 mps 664 mmHg 39%
    04:00 +23°C° 0 mm 1 mps 664 mmHg 39%
    05:00 +21°C° 0 mm 0 mps 664 mmHg 40%
    06:00 +21°C° 0 mm 0 mps 664 mmHg 40%
    07:00 +24°C° 0 mm 1 mps 665 mmHg 36%
    08:00 +25°C° 0 mm 1 mps 666 mmHg 32%
    09:00 +27°C° 0 mm 1 mps 667 mmHg 29%
    10:00 +28°C° 0 mm 1 mps 667 mmHg 28%
    11:00 +28°C° 0 mm 1 mps 666 mmHg 27%
    12:00 +29°C° 0 mm 2 mps 666 mmHg 26%
    13:00 +29°C° 0.2 mm 2 mps 666 mmHg 25%
    14:00 +29°C° 0.2 mm 2 mps 666 mmHg 25%
    15:00 +30°C° 0.2 mm 2 mps 666 mmHg 24%
    16:00 +29°C° 0.2 mm 1 mps 666 mmHg 25%
    17:00 +28°C° 0.2 mm 1 mps 666 mmHg 27%
    18:00 +28°C° 0.2 mm 1 mps 666 mmHg 28%
    19:00 +27°C° 0.1 mm 1 mps 667 mmHg 30%
    20:00 +27°C° 0.1 mm 1 mps 667 mmHg 31%
    21:00 +26°C° 0.1 mm 1 mps 668 mmHg 33%
    22:00 +26°C° 0.1 mm 1 mps 668 mmHg 35%
    23:00 +25°C° 0.1 mm 1 mps 668 mmHg 37%

    Day after tomorrow, 27 September, Thursday

    Time Temperature Precipitation Wind Pressure Humidity
    00:00 +25°C° 0.1 mm 1 mps 668 mmHg 39%
    01:00 +24°C° 0 mm 1 mps 668 mmHg 40%
    02:00 +24°C° 0 mm 1 mps 667 mmHg 42%
    03:00 +23°C° 0 mm 1 mps 667 mmHg 44%
    04:00 +23°C° 0 mm 1 mps 668 mmHg 44%
    05:00 +23°C° 0 mm 1 mps 668 mmHg 44%
    06:00 +23°C° 0 mm 1 mps 668 mmHg 43%
    07:00 +24°C° 0 mm 1 mps 669 mmHg 38%
    08:00 +25°C° 0 mm 2 mps 669 mmHg 33%
    09:00 +26°C° 0 mm 2 mps 670 mmHg 28%
    10:00 +27°C° 0 mm 2 mps 670 mmHg 26%
    11:00 +28°C° 0 mm 2 mps 669 mmHg 25%
    12:00 +29°C° 0 mm 2 mps 669 mmHg 23%
    13:00 +29°C° 0.1 mm 2 mps 669 mmHg 23%
    14:00 +29°C° 0.1 mm 2 mps 669 mmHg 23%
    15:00 +29°C° 0.1 mm 2 mps 669 mmHg 23%
    16:00 +29°C° 0.1 mm 2 mps 669 mmHg 25%
    17:00 +28°C° 0.1 mm 1 mps 669 mmHg 27%
    18:00 +27°C° 0.1 mm 1 mps 669 mmHg 29%
    19:00 +27°C° 0 mm 1 mps 669 mmHg 30%
    20:00 +26°C° 0 mm 1 mps 670 mmHg 31%
    21:00 +24°C° 0 mm 0 mps 670 mmHg 32%
    22:00 +25°C° 0 mm 1 mps 670 mmHg 33%
    23:00 +25°C° 0 mm 1 mps 669 mmHg 34%

    28 September, Friday

    Time Temperature Precipitation Wind Pressure Humidity
    00:00 +24°C° 0 mm 1 mps 669 mmHg 35%
    01:00 +24°C° 0 mm 1 mps 669 mmHg 37%
    02:00 +23°C° 0 mm 1 mps 669 mmHg 39%
    03:00 +23°C° 0 mm 1 mps 669 mmHg 40%
    04:00 +23°C° 0 mm 1 mps 669 mmHg 40%
    05:00 +22°C° 0 mm 1 mps 669 mmHg 40%
    06:00 +22°C° 0 mm 1 mps 670 mmHg 39%
    07:00 +23°C° 0 mm 1 mps 670 mmHg 35%
    08:00 +24°C° 0 mm 1 mps 671 mmHg 30%
    09:00 +26°C° 0 mm 2 mps 671 mmHg 25%
    10:00 +26°C° 0 mm 2 mps 671 mmHg 24%
    11:00 +27°C° 0 mm 2 mps 671 mmHg 23%
    12:00 +28°C° 0 mm 2 mps 671 mmHg 22%
    13:00 +28°C° 0 mm 2 mps 670 mmHg 22%
    14:00 +28°C° 0 mm 2 mps 670 mmHg 23%
    15:00 +28°C° 0 mm 2 mps 670 mmHg 23%
    16:00 +28°C° 0 mm 2 mps 670 mmHg 24%
    17:00 +27°C° 0 mm 1 mps 670 mmHg 25%
    18:00 +27°C° 0 mm 1 mps 670 mmHg 27%
    19:00 +26°C° 0 mm 1 mps 670 mmHg 26%
    20:00 +26°C° 0 mm 2 mps 670 mmHg 26%
    21:00 +26°C° 0 mm 2 mps 670 mmHg 25%
    22:00 +25°C° 0 mm 2 mps 669 mmHg 25%
    23:00 +25°C° 0 mm 2 mps 669 mmHg 25%

    29 September, Saturday

    Time Temperature Precipitation Wind Pressure Humidity
    00:00 +24°C° 0 mm 2 mps 669 mmHg 25%
    01:00 +24°C° 0 mm 1 mps 669 mmHg 26%
    02:00 +23°C° 0 mm 1 mps 668 mmHg 27%
    03:00 +23°C° 0 mm 1 mps 668 mmHg 28%
    04:00 +23°C° 0 mm 1 mps 668 mmHg 29%
    05:00 +22°C° 0 mm 1 mps 668 mmHg 31%
    06:00 +22°C° 0 mm 1 mps 668 mmHg 32%
    07:00 +23°C° 0 mm 2 mps 669 mmHg 31%
    08:00 +25°C° 0 mm 2 mps 669 mmHg 29%
    09:00 +26°C° 0 mm 2 mps 669 mmHg 27%
    10:00 +27°C° 0 mm 2 mps 669 mmHg 26%
    11:00 +27°C° 0 mm 2 mps 669 mmHg 26%
    12:00 +28°C° 0 mm 2 mps 668 mmHg 25%
    13:00 +28°C° 0 mm 2 mps 668 mmHg 26%
    14:00 +28°C° 0 mm 2 mps 668 mmHg 26%
    15:00 +29°C° 0 mm 2 mps 667 mmHg 26%
    16:00 +28°C° 0 mm 1 mps 667 mmHg 27%
    17:00 +28°C° 0 mm 1 mps 667 mmHg 28%
    18:00 +27°C° 0 mm 1 mps 667 mmHg 30%
    19:00 +27°C° 0 mm 1 mps 667 mmHg 31%
    20:00 +26°C° 0 mm 1 mps 667 mmHg 31%
    21:00 +26°C° 0 mm 1 mps 667 mmHg 32%
    22:00 +25°C° 0 mm 1 mps 667 mmHg 33%
    23:00 +25°C° 0 mm 1 mps 667 mmHg 34%

    30 September, Sunday

    Time Temperature Precipitation Wind Pressure Humidity
    00:00 +24°C° 0 mm 1 mps 666 mmHg 35%
    01:00 +22°C° 0 mm 0 mps 666 mmHg 36%
    02:00 +22°C° 0 mm 0 mps 666 mmHg 36%
    03:00 +21°C° 0 mm 0 mps 666 mmHg 37%
    04:00 +21°C° 0 mm 0 mps 666 mmHg 38%
    05:00 +21°C° 0 mm 0 mps 666 mmHg 38%
    06:00 +21°C° 0 mm 0 mps 666 mmHg 38%
    07:00 +22°C° 0 mm 0 mps 667 mmHg 34%
    08:00 +26°C° 0 mm 1 mps 667 mmHg 29%
    09:00 +27°C° 0 mm 1 mps 667 mmHg 25%
    10:00 +28°C° 0 mm 1 mps 667 mmHg 24%
    11:00 +29°C° 0 mm 1 mps 667 mmHg 22%
    12:00 +30°C° 0 mm 1 mps 667 mmHg 21%
    13:00 +30°C° 0 mm 1 mps 667 mmHg 21%
    14:00 +31°C° 0 mm 1 mps 666 mmHg 20%
    15:00 +31°C° 0 mm 1 mps 666 mmHg 20%
    16:00 +30°C° 0 mm 1 mps 666 mmHg 21%
    17:00 +30°C° 0 mm 1 mps 666 mmHg 23%
    18:00 +29°C° 0 mm 1 mps 666 mmHg 24%
    19:00 +29°C° 0 mm 1 mps 666 mmHg 26%
    20:00 +28°C° 0 mm 1 mps 666 mmHg 27%
    21:00 +27°C° 0 mm 1 mps 666 mmHg 28%
    22:00 +27°C° 0 mm 1 mps 666 mmHg 29%
    23:00 +24°C° 0 mm 0 mps 666 mmHg 31%
    Show more